| time (UTC) | temp F | wind direction | speed MPH | gust MPH | rain 1hr in | rain 24hr in | rain mn in | humidity % | barometer mb |
| 20260504033052 | 50 | 139 | 0.0 | 2.0 | 0.00 | 0.00 | 0.00 | 52 | 1013.1 |
| 20260504031509 | 51 | 215 | 0.0 | 2.0 | 0.00 | 0.00 | 0.00 | 49 | 1012.9 |
| 20260504030019 | 51 | 181 | 0.0 | 5.0 | 0.00 | 0.00 | 0.00 | 47 | 1012.9 |
| 20260504024554 | 51 | 140 | 0.0 | 2.0 | 0.00 | 0.00 | 0.00 | 47 | 1013.0 |
| 20260504023051 | 52 | 141 | 0.0 | 2.0 | 0.00 | 0.00 | 0.00 | 47 | 1012.9 |
| 20260504021600 | 52 | 184 | 0.0 | 1.0 | 0.00 | 0.00 | 0.00 | 45 | 1012.9 |
| 20260504020300 | 53 | 195 | 0.0 | 3.0 | 0.00 | 0.00 | 0.00 | 43 | 1013.0 |
| 20260504014520 | 53 | 212 | 0.0 | 1.0 | 0.00 | 0.00 | 0.00 | 42 | 1012.9 |
| 20260504013041 | 53 | 169 | 0.0 | 2.0 | 0.00 | 0.00 | 0.00 | 41 | 1012.7 |
| 20260504011546 | 53 | 191 | 0.0 | 1.0 | 0.00 | 0.00 | 0.00 | 40 | 1012.5 |
| 20260504010100 | 54 | 214 | 0.0 | 2.0 | 0.00 | 0.00 | 0.00 | 39 | 1012.4 |
| 20260504004534 | 54 | 229 | 0.0 | 1.0 | 0.00 | 0.00 | 0.00 | 38 | 1012.1 |
| 20260504003029 | 55 | 153 | 0.0 | 1.0 | 0.00 | 0.00 | 0.00 | 37 | 1011.9 |
| 20260504001557 | 56 | 211 | 0.0 | 2.0 | 0.00 | 0.00 | 0.00 | 35 | 1011.7 |
| 20260504000316 | 58 | 234 | 0.0 | 2.0 | 0.00 | 0.00 | 0.00 | 33 | 1011.4 |
| 20260504000001 | 57 | 246 | 0.0 | 3.0 | 0.00 | 0.00 | 0.00 | 33 | 1011.5 |
| 20260503234503 | 58 | 258 | 0.0 | 4.0 | 0.00 | 0.00 | 0.00 | 32 | 1011.4 |
| 20260503233002 | 59 | 146 | 0.0 | 6.0 | 0.00 | 0.00 | 0.00 | 31 | 1011.1 |
| 20260503231513 | 61 | 224 | 0.0 | 4.0 | 0.00 | 0.00 | 0.00 | 28 | 1011.1 |
| 20260503230031 | 61 | 252 | 1.0 | 10.0 | 0.00 | 0.00 | 0.00 | 28 | 1010.9 |
| 20260503224553 | 61 | 336 | 3.0 | 9.0 | 0.00 | 0.00 | 0.00 | 27 | 1010.9 |
| 20260503223002 | 61 | 347 | 2.0 | 10.0 | 0.00 | 0.00 | 0.00 | 26 | 1010.8 |
| 20260503221520 | 61 | 25 | 2.0 | 12.0 | 0.00 | 0.00 | 0.00 | 27 | 1010.7 |
| 20260503220304 | 61 | 345 | 7.0 | 13.0 | 0.00 | 0.00 | 0.00 | 26 | 1010.8 |
| 20260503220021 | 61 | 324 | 4.0 | 13.0 | 0.00 | 0.00 | 0.00 | 26 | 1010.8 |
| 20260503214541 | 61 | 284 | 3.0 | 11.0 | 0.00 | 0.00 | 0.00 | 27 | 1010.8 |
| 20260503213001 | 61 | 238 | 4.0 | 13.0 | 0.00 | 0.00 | 0.00 | 26 | 1010.7 |
| 20260503211508 | 61 | 331 | 4.0 | 16.0 | 0.00 | 0.00 | 0.00 | 26 | 1010.8 |
| 20260503210025 | 60 | 319 | 3.0 | 16.0 | 0.00 | 0.00 | 0.00 | 28 | 1010.8 |
| 20260503204555 | 61 | 246 | 4.0 | 12.0 | 0.00 | 0.00 | 0.00 | 27 | 1010.6 |
| 20260503203003 | 60 | 248 | 3.0 | 20.0 | 0.00 | 0.00 | 0.00 | 28 | 1010.8 |
| 20260503201525 | 60 | 317 | 5.0 | 12.0 | 0.00 | 0.00 | 0.00 | 29 | 1010.8 |
| 20260503200318 | 60 | 292 | 5.0 | 13.0 | 0.00 | 0.00 | 0.00 | 27 | 1011.0 |
| 20260503200033 | 60 | 284 | 3.0 | 13.0 | 0.00 | 0.00 | 0.00 | 29 | 1011.1 |
| 20260503194551 | 60 | 255 | 6.0 | 16.0 | 0.00 | 0.00 | 0.00 | 28 | 1011.1 |
| 20260503193028 | 59 | 254 | 5.0 | 13.0 | 0.00 | 0.00 | 0.00 | 29 | 1011.3 |
| 20260503191528 | 59 | 303 | 4.0 | 15.0 | 0.00 | 0.00 | 0.00 | 30 | 1011.4 |
| 20260503190052 | 58 | 36 | 5.0 | 18.0 | 0.00 | 0.00 | 0.00 | 31 | 1011.3 |
| 20260503184607 | 57 | 287 | 4.0 | 11.0 | 0.00 | 0.00 | 0.00 | 34 | 1011.7 |
| 20260503183005 | 57 | 15 | 5.0 | 15.0 | 0.00 | 0.00 | 0.00 | 33 | 1011.8 |
| 20260503181515 | 56 | 262 | 4.0 | 12.0 | 0.00 | 0.00 | 0.00 | 36 | 1011.9 |
| 20260503180316 | 56 | 358 | 2.0 | 12.0 | 0.00 | 0.00 | 0.00 | 37 | 1011.9 |
| 20260503180021 | 55 | 28 | 3.0 | 12.0 | 0.00 | 0.00 | 0.00 | 38 | 1012.1 |
| 20260503174539 | 54 | 32 | 4.0 | 14.0 | 0.00 | 0.00 | 0.00 | 38 | 1012.0 |
| 20260503173046 | 54 | 270 | 2.0 | 17.0 | 0.00 | 0.00 | 0.00 | 39 | 1012.1 |
| 20260503171601 | 54 | 254 | 5.0 | 13.0 | 0.00 | 0.00 | 0.00 | 37 | 1012.2 |
| 20260503140302 | 52 | 289 | 3.0 | 9.0 | 0.00 | 0.00 | 0.00 | 45 | 1012.7 |
| 20260503081542 | 47 | 188 | 2.0 | 7.0 | 0.00 | 0.00 | 0.00 | 51 | 1010.7 |
| 20260503080310 | 48 | 294 | 2.0 | 5.0 | 0.00 | 0.00 | 0.00 | 51 | 1010.7 |
| 20260503071531 | 48 | 309 | 1.0 | 6.0 | 0.00 | 0.00 | 0.00 | 48 | 1010.7 |
| 20260503060309 | 51 | 318 | 3.0 | 7.0 | 0.00 | 0.00 | 0.00 | 44 | 1010.8 |
| 20260503054549 | 50 | 18 | 1.0 | 7.0 | 0.00 | 0.00 | 0.00 | 43 | 1010.8 |
| 20260503053008 | 51 | 355 | 4.0 | 11.0 | 0.00 | 0.00 | 0.00 | 41 | 1010.9 |
| 20260503051518 | 51 | 209 | 3.0 | 9.0 | 0.00 | 0.00 | 0.00 | 41 | 1011.3 |
| 20260503050025 | 51 | 341 | 2.0 | 9.0 | 0.00 | 0.00 | 0.00 | 42 | 1011.3 |
| 20260503044544 | 52 | 356 | 3.0 | 13.0 | 0.00 | 0.00 | 0.00 | 41 | 1011.4 |
| 20260503043040 | 52 | 3 | 3.0 | 10.0 | 0.00 | 0.00 | 0.00 | 42 | 1011.3 |
| 20260503041551 | 52 | 77 | 2.0 | 7.0 | 0.00 | 0.00 | 0.00 | 41 | 1011.4 |
| 20260503040305 | 53 | 334 | 2.0 | 7.0 | 0.00 | 0.00 | 0.00 | 41 | 1011.5 |
| 20260503040104 | 52 | 8 | 2.0 | 7.0 | 0.00 | 0.00 | 0.00 | 41 | 1011.5 |
| 20260503034518 | 53 | 281 | 2.0 | 10.0 | 0.00 | 0.00 | 0.00 | 41 | 1011.4 |